This demonstration page uses our WeatherBlox Daily Observations layout. Learn more.

39.92423, -83.80882

Hourly Observations for September 29, 2016

Temp ( °F °C ) Dew Point ( °F °C ) Humidity (%) Winds ( mph kmh ) Pressure ( in mb ) Visibility ( mi km ) Precip ( " mm )
12:25 am 00:25 Cloudy with Fog 52 11 50 10 94 94 Calm 29.94 1014 0.25 0.402335 0 0
12:32 am 00:32 Cloudy with Fog 52 11 50 10 94 94 Calm 29.94 1014 0.25 0.402335 0 0
12:56 am 00:56 Cloudy with Fog 50 10 49 9.4 96 96 Calm 29.95 1014 0.25 0.402335 0 0
1:56 am 01:56 Cloudy with Fog 52 11.1 51 10.6 97 97 ESE 7 11 29.97 1015 0.25 0.402335 0 0
2:56 am 02:56 Cloudy with Fog 51 10.6 51 10.6 100 100 Calm 29.97 1015 0.25 0.402335 0.01 0.254
3:56 am 03:56 Cloudy with Fog 52 11.1 52 11.1 100 100 ESE 7 11 29.97 1015 0.25 0.402335 0 0
4:56 am 04:56 Cloudy with Fog 53 11.7 53 11.7 100 100 ESE 6 9 29.98 1015 0.5 0.80467 0 0
5:23 am 05:23 Cloudy with Mist and Fog 54 12 54 12 100 100 Calm 29.97 1015 1 1.60934 0 0
5:28 am 05:28 Cloudy with Mist and Fog 54 12 54 12 100 100 Calm 29.97 1015 2 3.21868 0 0
5:41 am 05:41 Cloudy with Mist and Fog 54 12 54 12 100 100 Calm 29.97 1015 3 4.82802 0 0
5:56 am 05:56 Cloudy with Mist and Fog 54 12.2 53 11.7 97 97 Calm 30 1016 3 4.82802 0 0
6:06 am 06:06 Cloudy with Mist and Fog 54 12 54 12 100 100 SSE 6 9 30 1016 4 6.43736 0 0
6:35 am 06:35 Cloudy with Mist and Fog 54 12 54 12 100 100 Calm 30 1016 2 3.21868 0 0
6:43 am 06:43 Cloudy with Mist and Fog 54 12 54 12 100 100 Calm 30 1016 2.5 4.02335 0 0
6:56 am 06:56 Cloudy with Mist and Fog 53 11.7 53 11.7 100 100 SE 3 6 30.02 1017 3 4.82802 0 0
7:09 am 07:09 Cloudy with Mist and Fog 54 12 54 12 100 100 Calm 30.03 1017 3 4.82802 0 0
7:16 am 07:16 Cloudy with Mist and Fog 54 12 52 11 94 94 Calm 30.03 1017 3 4.82802 0 0
7:25 am 07:25 Cloudy with Mist and Fog 54 12 54 12 100 100 NE 3 6 30.03 1017 3 4.82802 0 0
7:34 am 07:34 Cloudy with Mist and Fog 54 12 52 11 94 94 NE 3 6 30.03 1017 2 3.21868 0 0
7:52 am 07:52 Cloudy with Mist and Fog 54 12 54 12 100 100 ENE 3 6 30.03 1017 1.5 2.41401 0 0
7:56 am 07:56 Cloudy with Mist and Fog 53 11.7 53 11.7 100 100 ENE 3 6 30.04 1017 1.75 2.816345 0 0
8:14 am 08:14 Cloudy with Mist and Fog 54 12 54 12 100 100 ENE 3 6 30.03 1017 2 3.21868 0 0
8:42 am 08:42 Cloudy with Mist and Fog 54 12 54 12 100 100 E 7 11 30.06 1018 2.5 4.02335 0 0
8:52 am 08:52 Cloudy with Mist and Fog 54 12 54 12 100 100 E 6 9 30.06 1018 2.5 4.02335 0 0
8:56 am 08:56 Cloudy with Mist and Fog 55 12.8 54 12.2 96 96 E 5 7 30.06 1018 2.5 4.02335 0 0
9:03 am 09:03 Cloudy with Mist and Fog 55 13 54 12 94 94 ENE 6 9 30.06 1018 3 4.82802 0 0
9:13 am 09:13 Cloudy with Mist and Fog 55 13 54 12 94 94 E 7 11 30.06 1018 3 4.82802 0 0
9:56 am 09:56 Cloudy 57 13.9 55 12.8 93 93 ESE 5 7 30.08 1019 8 12.87472 0 0
10:09 am 10:09 Cloudy 57 14 55 13 94 94 SE 5 7 30.06 1018 10 16.0934 0 0
10:40 am 10:40 Cloudy 57 14 54 12 88 88 E 5 7 30.09 1019 10 16.0934 0 0
10:56 am 10:56 Cloudy 58 14.4 54 12.2 87 87 VRB 5 7 30.09 1019 10 16.0934 0 0
11:27 am 11:27 Partly Cloudy 61 16 54 12 77 77 E 7 11 30.09 1019 10 16.0934 0 0
11:56 am 11:56 Mostly Sunny 62 16.7 54 12.2 75 75 ESE 8 13 30.09 1019 10 16.0934 0 0
12:29 pm 12:29 Mostly Cloudy 63 17 54 12 73 73 NE 8 13 30.09 1019 10 16.0934 0 0
12:51 pm 12:51 Mostly Cloudy 63 17 54 12 73 73 E 7 11 30.09 1019 10 16.0934 0 0
12:56 pm 12:56 Mostly Cloudy 63 17.2 53 11.7 70 70 E 8 13 30.09 1019 10 16.0934 0 0
1:40 pm 13:40 Mostly Cloudy 63 17 54 12 73 73 E 10 17 30.09 1019 10 16.0934 0 0
1:56 pm 13:56 Cloudy with Light Rain 61 16.1 54 12.2 78 78 E 9 15 30.09 1019 10 16.0934 0 0.0254
2:08 pm 14:08 Cloudy with Rain 61 16 55 13 83 83 ENE 9 15 30.09 1019 10 16.0934 0.02 0.508
2:56 pm 14:56 Cloudy with Light Rain 59 15 57 13.9 93 93 Calm 30.1 1019 10 16.0934 0.05 1.27
3:56 pm 15:56 Cloudy with Light Rain 58 14.4 57 13.9 97 97 NE 13 20 30.07 1018 8 12.87472 0.06 1.524
4:56 pm 16:56 Cloudy with Rain 58 14.4 56 13.3 93 93 NNE 9 15 30.07 1018 7 11.26538 0.12 3.048
5:56 pm 17:56 Cloudy 57 13.9 54 12.2 90 90 N 6 9 30.08 1019 10 16.0934 0.01 0.254
6:56 pm 18:56 Partly Cloudy 56 13.3 54 12.2 93 93 NW 6 9 30.1 1019 10 16.0934 0 0
7:56 pm 19:56 Mostly Cloudy 56 13.3 54 12.2 93 93 N 5 7 30.09 1019 10 16.0934 0 0
8:33 pm 20:33 Mostly Cloudy 55 13 54 12 94 94 NE 6 9 30.09 1019 10 16.0934 0 0
8:56 pm 20:56 Cloudy 57 13.9 55 12.8 93 93 N 10 17 30.1 1019 10 16.0934 0 0
9:27 pm 21:27 Cloudy 57 14 55 13 94 94 NNW 6 9 30.09 1019 10 16.0934 0 0
9:56 pm 21:56 Cloudy 57 13.9 56 13.3 96 96 N 5 7 30.09 1019 10 16.0934 0 0
10:56 pm 22:56 Cloudy 58 14.4 56 13.3 93 93 NNW 5 7 30.08 1019 10 16.0934 0 0
11:11 pm 23:11 Cloudy 57 14 55 13 94 94 NW 3 6 30.09 1019 9 14.48406 0 0
11:56 pm 23:56 Cloudy with Light Rain 58 14.4 57 13.9 97 97 Calm 30.09 1019 9 14.48406 0 0.0254

Powered by AerisWeather